Weather History for Lee's Summit, MO

Change the Weather History Date:

Wednesday, January 16, 2013

  Actual Average (KMKC) Record (KMKC)
Temperature  
Mean Temperature 32 °F -  
Max Temperature 44 °F 37 °F 66 °F (2012)
Min Temperature 19 °F 21 °F 1 °F (2007)
Degree Days  
Heating Degree Days 34    
Moisture  
Dew Point 19 °F    
Average Humidity 57    
Maximum Humidity 68    
Minimum Humidity 40    
Precipitation  
Precipitation 0.00 in - - ()
Sea Level Pressure  
Sea Level Pressure 30.12 in    
Wind  
Wind Speed 8 mph (SW)    
Max Wind Speed 16 mph    
Max Gust Speed -    
Visibility 10 miles    
Events      
Averages and records for this station are not official NWS values.
T = Trace of Precipitation, MM = Missing Value Source: NWS Daily Summary

Daily Weather History Graph

Daily Weather History Graph

Search for Another Location

Airport:

Trip Planner

Search our weather history database for the weather conditions in past years. The results will help you decide how hot, cold, wet, or windy it might be!

Date:

Astronomy

Jan. 16, 2013 Rise Set
Actual Time 7:34 AM CST 5:20 PM CST
Civil Twilight 7:05 AM CST 5:50 PM CST
Nautical Twilight 6:32 AM CST 6:22 PM CST
Astronomical Twilight 6:00 AM CST 6:54 PM CST
Moon 10:14 AM CST (1/16) 11:09 PM CST (1/16)
Length of Visible Light 10h 44m
Length of Day
9h 46m
Waxing Crescent, 28% of the Moon is Illuminated
Jan 16
Waxing Crescent
Jan 18
First Quarter
Jan 26
Full
Feb 3
Last Quarter
Feb 10
New

Hourly Weather History & Observations

Time (CST) Temp. Windchill Dew Point Humidity Pressure Visibility Wind Dir Wind Speed Gust Speed Precip Events Conditions
12:53 AM 19.0 °F 12.3 °F 10.0 °F 68% 30.20 in 10.0 mi SW 4.6 mph - N/A   Clear
1:53 AM 19.0 °F 11.1 °F 9.0 °F 65% 30.18 in 10.0 mi SW 5.8 mph - N/A   Clear
3:53 AM 19.9 °F 10.1 °F 10.9 °F 68% 30.15 in 10.0 mi SW 8.1 mph - N/A   Clear
4:53 AM 19.9 °F 10.1 °F 10.9 °F 68% 30.13 in 10.0 mi SW 8.1 mph - N/A   Clear
6:53 AM 19.9 °F 10.1 °F 10.9 °F 68% 30.10 in 10.0 mi SSW 8.1 mph - N/A   Clear
7:53 AM 21.0 °F 10.6 °F 10.9 °F 65% 30.09 in 10.0 mi SSW 9.2 mph - N/A   Clear
8:53 AM 24.1 °F 14.4 °F 14.0 °F 65% 30.12 in 10.0 mi SSW 9.2 mph - N/A   Clear
9:53 AM 30.0 °F 19.5 °F 16.0 °F 56% 30.11 in 10.0 mi SW 13.8 mph - N/A   Clear
10:53 AM 35.1 °F 26.9 °F 18.0 °F 50% 30.10 in 10.0 mi SSW 11.5 mph - N/A   Partly Cloudy
11:53 AM 37.9 °F 28.9 °F 17.1 °F 43% 30.07 in 10.0 mi SW 16.1 mph - N/A   Clear
12:53 PM 39.9 °F 31.8 °F 19.0 °F 43% 30.04 in 10.0 mi SSW 15.0 mph - N/A   Overcast
1:53 PM 42.1 °F 35.2 °F 19.0 °F 40% 30.05 in 10.0 mi WSW 12.7 mph - N/A   Overcast
2:53 PM 44.1 °F 37.7 °F 21.9 °F 42% 30.06 in 10.0 mi WSW 12.7 mph - N/A   Clear
3:53 PM 44.1 °F 38.1 °F 23.0 °F 43% 30.06 in 10.0 mi WSW 11.5 mph - N/A   Clear
4:53 PM 44.1 °F 39.5 °F 24.1 °F 45% 30.09 in 10.0 mi WSW 8.1 mph - N/A   Clear
5:53 PM 39.0 °F 34.8 °F 24.1 °F 55% 30.10 in 10.0 mi SSW 5.8 mph - N/A   Clear
6:53 PM 37.9 °F 34.4 °F 24.1 °F 57% 30.12 in 10.0 mi SSW 4.6 mph - N/A   Clear
7:53 PM 36.0 °F 30.3 °F 24.1 °F 62% 30.14 in 10.0 mi SW 6.9 mph - N/A   Clear
8:53 PM 34.0 °F 28.0 °F 23.0 °F 64% 30.14 in 10.0 mi SW 6.9 mph - N/A   Clear
9:53 PM 35.1 °F 29.3 °F 24.1 °F 64% 30.14 in 10.0 mi WSW 6.9 mph - N/A   Clear
10:53 PM 35.1 °F 30.1 °F 25.0 °F 67% 30.16 in 10.0 mi WNW 5.8 mph - N/A   Clear
11:53 PM 39.0 °F 32.3 °F 28.0 °F 65% 30.19 in 10.0 mi NNW 10.4 mph - N/A   Clear